Location: Flotzheim
(48.8375°N, 10.8136°E)
Time: 04:51:39
(UTC+00:00)

COSMO-SKYMED 1 - Pass Details

Date: 23 January 2021
Orbit: 621 x 623 km, 97.9° (Epoch: 26 February)

Event Time Altitude Azimuth Distance (km) Brightness Sun altitude
Rises 17:12:50 0° 16° (NNE) 2,917 5.7 -11.9°
Reaches altitude 10° 17:15:04 10° 21° (NNE) 2,005 4.8 -12.2°
Maximum altitude 17:19:22 58° 101° (E) 728 2.6 -12.9°
Drops below altitude 10° 17:23:38 10° 181° (S) 1,987 5.3 -13.6°
Sets 17:25:51 0° 185° (S) 2,888 6.2 -13.9°
